[keps] orb12313.2l.amsat
Ray Hoad
ray.hoad at mypbmail.com
Thu Nov 8 18:47:28 PST 2012
SB KEPS @ AMSAT $ORB12313.N
2Line Orbital Elements 12313.AMSAT
HR AMSAT ORBITAL ELEMENTS FOR AMATEUR SATELLITES IN NASA FORMAT
FROM WA5QGD FORT WORTH,TX November 8, 2012
BID: ORB12313.N
DECODE 2-LINE ELSETS WITH THE FOLLOWING KEY:
1 AAAAAU 00 0 0 BBBBB.BBBBBBBB .CCCCCCCC 00000-0 00000-0 0 DDDZ
2 AAAAA EEE.EEEE FFF.FFFF GGGGGGG HHH.HHHH III.IIII JJ.JJJJJJJJKKKKKZ
KEY: A-CATALOGNUM B-EPOCHTIME C-DECAY D-ELSETNUM E-INCLINATION F-RAAN
G-ECCENTRICITY H-ARGPERIGEE I-MNANOM J-MNMOTION K-ORBITNUM Z-CHECKSUM
TO ALL RADIO AMATEURS BT
AO-07
1 07530U 74089B 12311.59806285 -.00000027 00000-0 10000-3 0 5242
2 07530 101.4134 303.3643 0012195 004.3615 355.7557 12.53592563737892
FO-29
1 24278U 96046B 12311.24315477 .00000029 00000-0 65755-4 0 9756
2 24278 098.5856 033.3163 0351021 021.7125 339.8484 13.52991843801165
SO-33
1 25509U 98061B 12312.22210299 .00000752 00000-0 13894-3 0 3616
2 25509 031.4330 244.1750 0351558 014.9933 346.0827 14.28884852733122
RS-22
1 27939U 03042A 12312.44682914 .00000352 00000-0 75257-4 0 8827
2 27939 097.8006 145.8637 0013422 166.5724 193.5862 14.64204570486846
VO-52
1 28650U 05017B 12311.13854706 .00000645 00000-0 84575-4 0 2548
2 28650 097.5843 335.0861 0025214 296.6587 063.2020 14.83332291406012
HO-68
1 36122U 09072B 12312.10921686 -.00000044 00000-0 00000 0 0 9857
2 36122 100.3428 008.4562 0007787 140.5127 219.6564 13.16299705139197
UO-11
1 14781U 84021B 12311.58797227 .00000707 00000-0 98833-4 0 193
2 14781 097.9357 009.7347 0007501 292.7253 067.3166 14.80636181540990
AO-16
1 20439U 90005D 12311.82915981 .00000099 00000-0 52570-4 0 5989
2 20439 098.4442 251.3057 0011836 095.3658 264.8878 14.32105461190414
LO-19
1 20442U 90005G 12312.38951331 .00000039 00000-0 30068-4 0 5290
2 20442 098.4126 254.3676 0012870 087.2835 272.9821 14.32320656190685
AO-27
1 22825U 93061C 12311.89641613 .00000014 00000-0 22731-4 0 2373
2 22825 098.5897 252.5886 0007719 217.5520 142.5120 14.29504768996868
IO-26
1 22826U 93061D 12310.89008098 .00000124 00000-0 65163-4 0 9899
2 22826 098.5835 251.9302 0008268 213.7633 146.3021 14.29782905996852
GO-32
1 25397U 98043D 12310.98154140 .00000028 00000-0 30651-4 0 9156
2 25397 098.3828 282.8444 0000773 182.1991 177.9206 14.23303870744194
NO-44
1 26931U 01043C 12311.80790469 .00000200 00000-0 10971-3 0 1782
2 26931 067.0508 112.7454 0005197 253.7492 106.3042 14.29852937579633
SO-50
1 27607U 02058C 12312.20049998 .00000404 00000-0 82405-4 0 9088
2 27607 064.5579 219.7928 0072692 219.4506 140.1297 14.72616730531023
CO-55
1 27844U 03031E 12311.07860621 .00000231 00000-0 12653-3 0 5015
2 27844 098.7030 317.4058 0009628 169.1171 191.0209 14.21105629485047
CO-57
1 27848U 03031J 12311.53004029 .00000205 00000-0 11487-3 0 4500
2 27848 098.7120 317.2513 0009534 172.7026 187.4279 14.20846993485041
AO-51
1 28375U 04025K 12310.94119812 .00000439 00000-0 14410-3 0 4060
2 28375 098.1670 269.7714 0083776 332.4802 027.1950 14.41024778439184
CP3
1 31129U 07012N 12311.54460767 .00000669 00000-0 16066-3 0 3068
2 31129 097.8860 310.9791 0102021 040.6060 320.2657 14.53299441294651
CO-65
1 32785U 08021C 12311.73131007 .00001042 00000-0 13337-3 0 4617
2 32785 097.7807 009.2996 0013399 319.9700 040.0529 14.83347041244896
PRISM
1 33493U 09002B 12312.04616328 .00002822 00000-0 33901-3 0 2325
2 33493 098.1896 096.2633 0018335 191.3014 168.7772 14.84711375204941
SOHLA-1
1 33496U 09002E 12311.90841748 .00000307 00000-0 59424-4 0 8790
2 33496 098.1172 062.8101 0005825 314.5518 045.5210 14.70102180203219
SO-67
1 35870U 09049F 12312.21131128 .00003825 00000-0 15574-3 0 4889
2 35870 097.2172 342.9138 0003291 053.5709 013.7662 15.25071394174405
TISAT-1
1 36799U 10035E 12312.39156409 .00001731 00000-0 22204-3 0 5079
2 36799 098.0524 029.7316 0015948 070.4722 289.8210 14.82495668125709
STUDSAT
1 36801U 10035G 12311.24887722 .00004727 00000-0 54869-3 0 5132
2 36801 098.0668 030.0281 0012965 060.4307 299.8181 14.85829750125605
FO-69
1 37227U 0 12313.28533313 .00000351 00000-0 57243-4 0 03313
2 37227 071.9710 353.9463 0015389 048.4481 311.8017 14.77254389057379
FO-70
1 37380U 0 12313.45076167 .00000328 00000-0 54271-4 0 03346
2 37380 071.9750 354.3243 0015952 045.3066 314.9384 14.77001025057283
ALMASAT-1
1 38078U 12006B 12312.45772154 .00013273 00000-0 36640-3 0 7175
2 38078 069.4744 351.5062 0733783 068.5571 299.2164 14.14749542 37775
XATCOBEO
1 38082U 12006F 12312.46275411 .00035296 00000-0 83348-3 0 6798
2 38082 069.4833 344.3664 0678588 064.5751 302.4013 14.29527251 37962
NOAA-10
1 16969U 86073A 12312.35185062 .00000047 00000-0 36476-4 0 1256
2 16969 098.5699 338.7734 0012224 171.3982 188.7411 14.27591305360293
NOAA-11
1 19531U 88089A 12312.19527712 .00000022 00000-0 33731-4 0 1206
2 19531 098.7258 034.3000 0011090 171.7336 188.4014 14.14989265244734
NOAA-12
1 21263U 91032A 12312.44526103 .00000096 00000-0 59417-4 0 6007
2 21263 098.7180 333.3765 0014215 141.7380 218.4813 14.25528533116964
MET-3/5
1 21655U 91056A 12312.19650018 -.00000001 00000-0 -34453-4 0 5452
2 21655 082.5586 051.1455 0012381 327.7723 032.2641 13.17041703 20717
MET-2/21
1 22782U 93055A 12310.95891467 .00000046 00000-0 27713-4 0 5731
2 22782 082.5457 280.0195 0023925 113.0467 247.3226 13.83691309968778
OKEAN-4
1 23317U 94066A 12311.91730499 .00000963 00000-0 11239-3 0 472
2 23317 082.5388 257.7327 0019246 238.9471 120.9856 14.84076049975972
NOAA-14
1 23455U 94089A 12312.42063652 .00000056 00000-0 52548-4 0 828
2 23455 098.8217 034.0659 0008687 270.8220 089.1958 14.13879752921035
NOAA-15
1 25338U 98030A 12312.07398347 .00000195 00000-0 10191-3 0 4716
2 25338 098.7044 297.7433 0011562 055.1352 305.0930 14.25141797753204
RESURS
1 25394U 98043A 12311.16686336 .00000034 00000-0 32497-4 0 2252
2 25394 098.3348 292.0365 0001376 142.1057 218.0220 14.24306063744610
FENGYUN1
1 25730U 99025A 12310.95296749 .00000559 00000-0 34211-3 0 7339
2 25730 098.8563 267.5650 0020907 319.3517 040.6090 14.09818734694582
OKEAN-0
1 25860U 99039A 12311.85671143 .00000431 00000-0 72448-4 0 7809
2 25860 097.9562 271.7466 0001540 096.0091 264.1293 14.74374554715597
NOAA-16
1 26536U 00055A 12312.31001555 .00000182 00000-0 12271-3 0 9594
2 26536 099.0767 356.5209 0011007 044.1314 316.0725 14.12803055625240
NOAA-17
1 27453U 02032A 12312.17480350 .00000170 00000-0 91049-4 0 9002
2 27453 098.3258 331.9191 0012723 096.7608 263.5021 14.24504555539119
NOAA-18
1 28654U 05018A 12312.30650797 .00000532 00000-0 31667-3 0 3827
2 28654 099.0665 271.7246 0014968 111.0829 249.1960 14.11727850384755
NOAA-19
1 33591U 09005A 12312.27566813 -.00000072 00000-0 -15493-4 0 5692
2 33591 098.8778 250.3756 0014149 340.8294 019.2353 14.11411713193197
HUBBLE
1 20580U 90037B 12311.38332071 .00001657 00000-0 10791-3 0 1047
2 20580 028.4700 292.7077 0003654 133.7621 226.3272 15.02995751 36134
ISS
1 25544U 98067A 12313.29469907 .00005971 00000-0 10757-3 0 6112
2 25544 051.6480 125.5966 0015398 257.8149 100.7055 15.51216053800399
CO-58
1 28895U 05043F 12311.08388889 .00000307 00000-0 71651-4 0 3206
2 28895 097.8933 170.9692 0018803 066.1396 294.1784 14.60825777374374
FALCON
1 30776U 07006E 12311.92451149 .00003052 00000-0 19310-3 0 4777
2 30776 035.4388 124.3099 0001310 265.1924 094.8645 15.08736050311813
MAST
1 31126U 07012K 12311.92542844 .00000374 00000-0 93137-4 0 6009
2 31126 097.8752 314.6945 0094274 026.3504 334.2448 14.54321306295015
CAPE1
1 31130U 07012P 12311.94103340 .00000674 00000-0 16228-3 0 6110
2 31130 097.8855 311.0320 0102063 040.2703 320.6034 14.53151733294501
COMPASS
1 32787U 08021E 12311.71812050 .00001051 00000-0 13051-3 0 4579
2 32787 097.7839 009.8143 0014256 317.4502 042.5608 14.84592172244959
AAUSAT2
1 32788U 08021F 12312.12639799 .00001616 00000-0 19556-3 0 4486
2 32788 097.7842 010.6800 0013174 317.0953 042.9299 14.84969274245040
DO-64
1 32789U 08021G 12311.74344952 .00002882 00000-0 32837-3 0 4650
2 32789 097.7969 012.9171 0013390 312.0469 047.9594 14.86880729245057
CO-66
1 32791U 08021J 12312.10549172 .00000765 00000-0 98390-4 0 4469
2 32791 097.7819 009.8082 0014221 316.2646 043.7490 14.83902155244937
RS-30
1 32953U 08025A 12312.07559149 .00000010 00000-0 00000 0 0 3013
2 32953 082.5044 206.2825 0019742 359.6176 000.4887 12.43029233202316
PHARMSAT
1 35002U 09028B 12226.86484473 .07728342 73476-5 57159-3 0 789
2 35002 040.4341 050.6671 0012079 300.9773 059.0492 16.39309245183554
METEOR-M
1 35865U 09049A 12312.07027100 -.00000008 00000-0 15872-4 0 9395
2 35865 098.6366 003.5818 0002885 016.6942 343.4331 14.21873510162904
RS-38
1 35869U 09049E 12312.21043084 .00000044 00000-0 39447-4 0 9173
2 35869 098.6315 003.6891 0004984 008.7326 351.3931 14.22097032162940
JUGNU
1 37839U 11058B 12310.99484575 .00000620 00000-0 19019-3 0 2638
2 37839 019.9566 219.1300 0019022 347.2108 012.7767 14.12100389 55316
SRMSAT
1 37841U 11058D 12311.87943196 .00000264 00000-0 00000 0 0 2650
2 37841 019.9690 221.4421 0011984 314.0997 045.8470 14.10177303 55354
RAX-2
1 37853U 11061D 12311.90945335 .00002724 00000-0 22065-3 0 3347
2 37853 101.7039 057.1449 0242279 303.3071 054.5134 14.81264372 55518
AUBIESAT
1 37854U 11061E 12311.89004718 .00003207 00000-0 25335-3 0 3336
2 37854 101.7065 057.5640 0242956 302.5715 055.2199 14.81759381 55511
HRBE
1 37855U 11061F 12311.31263510 .00003267 00000-0 25822-3 0 3293
2 37855 101.7083 056.6279 0244126 304.5621 053.2753 14.81545020 55426
RS-39
1 38051U 11062C 12312.14142431 .00007572 00000-0 29317-3 0 8665
2 38051 051.6354 197.3908 0014054 180.8857 315.1395 15.27071941 43798
E-STAR
1 38079U 12006C 12312.47144021 .00028091 00000-0 67401-3 0 6266
2 38079 069.4798 345.7922 0695173 065.4411 301.7606 14.25710734 37924
GOLIAT
1 38085U 12006J 12313.20531625 .00028487 00000-0 68348-3 0 5972
2 38085 069.4842 344.9184 0700929 065.0063 302.2699 14.24486449 38007
HORYU-2
1 38340U 12025D 12313.86557007 .00001022 00000-0 17734-3 0 2292
2 38340 098.1892 254.0402 0011797 230.0480 129.9692 14.70360903 25734
RS-40
1 38736U 12041D 12312.05587389 .00000010 00000-0 00000 0 0 990
2 38736 082.4747 293.6265 0020158 092.0914 268.2470 12.42647329 12658
PROITERES
1 38756U 12047B 12312.21829737 .00000587 00000-0 97368-4 0 2047
2 38756 098.2792 018.9479 0013834 093.0273 267.2531 14.73955510 8698
AENEAS
1 38760U 0 12313.32286052 .00003751 00000-0 34978-3 0 00601
2 38760 064.6723 230.8256 0217932 274.0125 083.6084 14.79511713008180
CSSWE-D
1 38761U 0 12313.32054815 .00002311 00000-0 22149-3 0 00576
2 38761 064.6729 230.8177 0219219 273.9941 083.6089 14.79444755008189
CXBN-E
1 38762U 0 12313.25074991 .00002743 00000-0 25919-3 0 00562
2 38762 064.6734 231.0189 0219092 273.8092 083.7989 14.79537100008173
OBJECT F
1 38763U 0 12313.31846775 .00002172 00000-0 20882-3 0 00534
2 38763 064.6727 230.8061 0219458 274.1373 083.4659 14.79488308008024
CINEMA-G
1 38764U 0 12313.31789208 .00002385 00000-0 22768-3 0 00533
2 38764 064.6720 230.8013 0219133 274.0444 083.5631 14.79516379008181
CP5
1 38765U 0 12313.31584741 .00002718 00000-0 25710-3 0 00528
2 38765 064.6722 230.7871 0218367 273.8147 083.8000 14.79617183008188
RAIKO
1 38852U 98067CN 12311.97518919 .00024314 00000-0 37919-3 0 327
2 38852 051.6476 131.7799 0018068 243.9762 115.9343 15.53527951 5116
FITSAT 1
1 38853U 98067CP 12311.77755295 .00028287 00000-0 43414-3 0 326
2 38853 051.6478 132.7108 0014509 255.3050 104.6313 15.53945594 5138
TechEdSat
1 38854U 98067CQ 12311.57496445 .00039244 00000-0 57970-3 0 365
2 38854 051.6471 133.6083 0014316 252.8653 107.0183 15.54829764 5101
F 1
1 38855U 98067CR 12311.76929167 .00037541 00000-0 55704-3 0 371
2 38855 051.6486 132.6587 0014824 249.4516 110.4873 15.54719119 5027
WeWish
1 38856U 98067CS 12311.94585594 .00062938 00000-0 86924-3 0 471
2 38856 051.6437 131.5835 0019121 247.2156 112.6808 15.56350072 5055
/EX
More information about the Keps
mailing list